STARLINK-31873, 59790

Orbit data source: Space-Track

STARLINK-31873, 59790 is a payload satellite owned by SpaceX/Seattle (US) in LEO that was launched on Sat, 18 May 2024 UTC via an FALCON 9 launch vehicle from the Air Force Eastern Test Range (AFETR). Payload-class satellites include a variety of spacecraft equipped with specific instruments for various scientific and technological missions. These include communications satellites like Starlink; space stations such as the ISS; scientific satellites like the Hubble; Earth observation satellites from companies like Planet Labs, Umbra, and HawkEye 360; GPS; miniature CubeSats for education and research; and military/defense satellites.

Loading next visibility...
Identifier
59790, 2024-093J
Orbit
LEO
Country
Flag of USUS
Related business
Manufacturer
SpaceX/Seattle
Mission
Operational Commercial Communications
Bus & Motor
STARLINK V2M, Unknown motor
Mass
730 kg wet, ~700 kg dry
Launch date (UTC)
2024-05-18 (2 years ago)
Launch vehicle
FALCON 9
Launch site
Air Force Eastern Test Range (AFETR)
Object type
Payload
Rocket body
Debris
Shape & HBR
Box + 2 Pan, 17.7 m
Radar Cross Section
33.884 m², Large (>1 m²)

Expand to show TLE details & history
Last TLE update: 10 hours ago

TLE from 10 hours ago
0 STARLINK-31873
1 59790U 24093J   26073.63622381  .00001653  00000-0  69582-4 0  9996
2 59790  43.0019 180.8139 0001139 280.3298  79.7426 15.27586441103456
Epoch: 2026-03-14T15:16Z
TLE epoch observation values (Epoch: 2026-03-14T15:16:09.737Z)
Latitude
0.00005°
Longitude
139.51882°
Altitude
482.666 km
Speed
7.626 km/s
True Right ascension
12h 03m 15s
True Declination
0° 00' 00"
Sunlit
Object was in full shadow at epoch
Visualization orbit readout
Latitude
Unknown
Longitude
Unknown
Altitude
Unknown
Speed
Unknown
Apparent Right ascension
Unknown
Apparent Declination
Unknown
Sunlit
N/A
Visualization observer readout
Local Sidereal Time
05:28:25
Azimuth
Unknown
Elevation
Unknown
Doppler factor
Unknown
Orbital elements
Apogee altitude
485.756 km
Perigee altitude
484.193 km
Semi-major axis
6,863.112 km
Eccentricity
0.00011
Inclination
43.0019°
RAAN
180.8139°
Arg. of periapsis
280.3298°
True anomaly
79.75544°
Mean anomaly
79.7426°
Eccentric anomaly
79.74902°
Mean motion
3.81735 °/min
Orbital period
94.31 mins
BSTAR
0.000069582
Loading maneuver chart data...
Computing Atmospheric mass density...
Loading historical data...
Loading historical data...
Loading historical data...
Loading historical data...
Loading historical data...
Loading historical data...
Loading historical data...

Documentation

Showing up to 5 results
|